Location: Champaign/Urbana Astronomical Society Observatory
(40.0333°N, 88.2833°W)
Time: 14:23:11
(UTC-06:00)

N. Korean satellite - Visible Passes

Search period start: 16 February 2019 00:00
Search period end: 26 February 2019 00:00
Orbit: 457 x 510 km, 97.2° (Epoch: 16 February)

Date Brightness Start Highest point End Pass type
(mag) Time Alt. Az. Time Alt. Az. Time Alt. Az.
16 Feb 10.3 05:02:57 10° ENE 05:03:59 11° E 05:04:59 10° ESE visible
17 Feb 6.4 06:09:27 10° N 06:12:56 85° WNW 06:16:22 10° SSW visible
17 Feb 10.1 18:18:57 10° SW 18:21:14 16° W 18:23:31 10° NW visible
18 Feb 8.0 05:44:52 10° NNE 05:48:11 41° E 05:51:26 10° S visible
18 Feb 9.0 17:53:05 10° SSW 17:56:23 31° W 17:59:40 10° NNW visible
19 Feb 9.5 05:20:45 10° NE 05:23:20 19° E 05:25:53 10° SE visible
21 Feb 6.6 06:03:55 10° NNE 06:07:23 81° ESE 06:10:49 10° S visible
21 Feb 10.0 18:13:08 10° SW 18:15:41 18° W 18:18:13 10° NW visible
22 Feb 8.4 05:39:25 10° NNE 05:42:36 34° E 05:45:45 10° SSE visible
23 Feb 9.8 05:15:27 10° NE 05:17:44 17° E 05:19:59 10° SE visible
25 Feb 6.9 05:58:22 10° NNE 06:01:48 67° E 06:05:12 10° S visible
25 Feb 9.9 18:07:20 10° SW 18:10:06 20° W 18:12:50 10° NW visible
